| time (UTC) | temp C | wind direction | speed KPH | gust KPH | rain 1hr cm | rain 24hr cm | rain mn cm | humidity % | barometer mb |
| 20260510180109 | 30 | 68 | 1.6 | 6.4 | 0.00 | 0.00 | 0.00 | 33 | 1013.0 |
| 20260510174553 | 30 | 204 | 3.2 | 9.7 | 0.00 | 0.00 | 0.00 | 33 | 1013.1 |
| 20260510173051 | 28 | 11 | 3.2 | 9.7 | 0.00 | 0.00 | 0.00 | 34 | 1013.2 |
| 20260510171601 | 28 | 298 | 3.2 | 11.3 | 0.00 | 0.00 | 0.00 | 37 | 1013.1 |
| 20260510170046 | 28 | 193 | 3.2 | 8.0 | 0.00 | 0.00 | 0.00 | 36 | 1013.4 |
| 20260510164547 | 27 | 161 | 3.2 | 9.7 | 0.00 | 0.00 | 0.00 | 37 | 1013.5 |
| 20260510163044 | 27 | 6 | 1.6 | 8.0 | 0.00 | 0.00 | 0.00 | 38 | 1013.5 |
| 20260510161543 | 27 | 118 | 3.2 | 9.7 | 0.00 | 0.00 | 0.00 | 38 | 1013.7 |
| 20260510160048 | 27 | 23 | 3.2 | 8.0 | 0.00 | 0.00 | 0.00 | 40 | 1013.9 |
| 20260510154559 | 27 | 224 | 1.6 | 8.0 | 0.00 | 0.00 | 0.00 | 40 | 1013.9 |
| 20260510153046 | 26 | 135 | 3.2 | 9.7 | 0.00 | 0.00 | 0.00 | 40 | 1014.1 |
| 20260510151534 | 26 | 242 | 1.6 | 6.4 | 0.00 | 0.00 | 0.00 | 41 | 1014.0 |
| 20260510150034 | 25 | 134 | 3.2 | 9.7 | 0.00 | 0.00 | 0.00 | 43 | 1014.0 |
| 20260510144546 | 26 | 231 | 1.6 | 8.0 | 0.00 | 0.00 | 0.00 | 43 | 1014.0 |
| 20260510143030 | 25 | 338 | 0.0 | 6.4 | 0.00 | 0.00 | 0.00 | 44 | 1013.9 |
| 20260510141526 | 24 | 235 | 1.6 | 8.0 | 0.00 | 0.00 | 0.00 | 46 | 1013.7 |
| 20260510140022 | 23 | 208 | 1.6 | 4.8 | 0.00 | 0.00 | 0.00 | 47 | 1013.6 |
| 20260510134522 | 23 | 201 | 1.6 | 8.0 | 0.00 | 0.00 | 0.00 | 47 | 1013.6 |
| 20260510133020 | 23 | 259 | 0.0 | 1.6 | 0.00 | 0.00 | 0.00 | 49 | 1013.6 |
| 20260510131516 | 22 | 285 | 0.0 | 1.6 | 0.00 | 0.00 | 0.00 | 53 | 1013.5 |
| 20260510130011 | 21 | 240 | 0.0 | 1.6 | 0.00 | 0.00 | 0.00 | 58 | 1013.6 |
| 20260510124508 | 19 | 353 | 0.0 | 3.2 | 0.00 | 0.00 | 0.00 | 62 | 1013.7 |
| 20260510123003 | 18 | 56 | 0.0 | 3.2 | 0.00 | 0.00 | 0.00 | 66 | 1013.6 |
| 20260510121601 | 18 | 257 | 0.0 | 1.6 | 0.00 | 0.00 | 0.00 | 68 | 1013.4 |
| 20260510120059 | 18 | 160 | 0.0 | 0.0 | 0.00 | 0.00 | 0.00 | 73 | 1013.4 |
| 20260510114555 | 17 | 161 | 0.0 | 0.0 | 0.00 | 0.00 | 0.00 | 78 | 1013.3 |
| 20260510113054 | 14 | 161 | 0.0 | 0.0 | 0.00 | 0.00 | 0.00 | 85 | 1013.0 |
| 20260510111552 | 13 | 160 | 0.0 | 0.0 | 0.00 | 0.00 | 0.00 | 89 | 1012.9 |
| 20260510110052 | 11 | 161 | 0.0 | 1.6 | 0.00 | 0.00 | 0.00 | 90 | 1012.7 |
| 20260510104556 | 11 | 160 | 0.0 | 1.6 | 0.00 | 0.00 | 0.00 | 91 | 1012.6 |
| 20260510103044 | -17 | 0.0 | 0.0 | 0.00 | 0.00 | 0.00 | 1012.2 | ||
| 20260510101547 | -17 | 0.0 | 0.0 | 0.00 | 0.00 | 0.00 | 1012.0 | ||
| 20260510100035 | -17 | 0.0 | 0.0 | 0.00 | 0.00 | 0.00 | 1011.8 | ||
| 20260510094532 | -17 | 0.0 | 0.0 | 0.00 | 0.00 | 0.00 | 1011.7 | ||
| 20260510093026 | -17 | 0.0 | 0.0 | 0.00 | 0.00 | 0.00 | 1011.6 | ||
| 20260510091526 | -17 | 0.0 | 0.0 | 0.00 | 0.00 | 0.00 | 1011.7 | ||
| 20260510090020 | 11 | 264 | 0.0 | 0.0 | 0.00 | 0.00 | 0.00 | 89 | 1011.5 |
| 20260510084539 | 12 | 264 | 0.0 | 1.6 | 0.00 | 0.00 | 0.00 | 89 | 1011.5 |
| 20260510083016 | 12 | 339 | 0.0 | 1.6 | 0.00 | 0.00 | 0.00 | 90 | 1011.4 |
| 20260510081528 | 12 | 340 | 0.0 | 1.6 | 0.00 | 0.00 | 0.00 | 90 | 1011.3 |
| 20260510080016 | 12 | 283 | 0.0 | 1.6 | 0.00 | 0.00 | 0.00 | 90 | 1011.1 |
| 20260510074510 | 12 | 283 | 0.0 | 0.0 | 0.00 | 0.00 | 0.00 | 89 | 1011.1 |
| 20260510073008 | 12 | 283 | 0.0 | 0.0 | 0.00 | 0.00 | 0.00 | 89 | 1010.9 |
| 20260510071506 | 12 | 283 | 0.0 | 0.0 | 0.00 | 0.00 | 0.00 | 88 | 1010.7 |
| 20260510070003 | 13 | 283 | 0.0 | 1.6 | 0.00 | 0.00 | 0.00 | 86 | 1010.7 |
| 20260510064604 | 13 | 284 | 0.0 | 1.6 | 0.00 | 0.00 | 0.00 | 85 | 1010.6 |
| 20260510063057 | 13 | 284 | 0.0 | 0.0 | 0.00 | 0.00 | 0.00 | 84 | 1010.6 |
| 20260510061603 | 14 | 284 | 0.0 | 1.6 | 0.00 | 0.00 | 0.00 | 82 | 1010.6 |
| 20260510060053 | 15 | 284 | 0.0 | 1.6 | 0.00 | 0.00 | 0.00 | 80 | 1010.4 |
| 20260510054549 | 15 | 284 | 0.0 | 1.6 | 0.00 | 0.00 | 0.00 | 79 | 1010.5 |
| 20260510053054 | 15 | 300 | 0.0 | 3.2 | 0.00 | 0.00 | 0.00 | 78 | 1010.5 |
| 20260510051545 | 16 | 280 | 0.0 | 1.6 | 0.00 | 0.00 | 0.00 | 77 | 1010.5 |
| 20260510050048 | 16 | 280 | 0.0 | 1.6 | 0.00 | 0.00 | 0.00 | 76 | 1010.5 |
| 20260510044546 | 16 | 285 | 0.0 | 1.6 | 0.00 | 0.00 | 0.00 | 76 | 1010.5 |
| 20260510043041 | 16 | 288 | 0.0 | 1.6 | 0.00 | 0.00 | 0.00 | 75 | 1010.4 |
| 20260510041539 | 16 | 274 | 0.0 | 1.6 | 0.00 | 0.00 | 0.00 | 74 | 1010.5 |
| 20260510040034 | 16 | 274 | 0.0 | 6.4 | 0.00 | 0.00 | 0.00 | 74 | 1010.5 |
| 20260510034534 | 17 | 245 | 0.0 | 1.6 | 0.00 | 0.00 | 0.00 | 72 | 1010.3 |
| 20260510033034 | 17 | 232 | 0.0 | 3.2 | 0.00 | 0.00 | 0.00 | 72 | 1010.2 |
| 20260510031538 | 17 | 228 | 0.0 | 1.6 | 0.00 | 0.00 | 0.00 | 71 | 1010.0 |
| 20260510030036 | 17 | 228 | 0.0 | 1.6 | 0.00 | 0.00 | 0.00 | 71 | 1010.0 |
| 20260510024535 | 16 | 229 | 0.0 | 0.0 | 0.00 | 0.00 | 0.00 | 71 | 1009.9 |
| 20260510023035 | 16 | 228 | 0.0 | 0.0 | 0.00 | 0.00 | 0.00 | 71 | 1009.7 |
| 20260510021535 | 16 | 229 | 0.0 | 0.0 | 0.00 | 0.00 | 0.00 | 72 | 1009.6 |
| 20260510020031 | 17 | 228 | 0.0 | 1.6 | 0.00 | 0.00 | 0.00 | 70 | 1009.6 |
| 20260510014530 | 17 | 232 | 0.0 | 0.0 | 0.00 | 0.00 | 0.00 | 70 | 1009.3 |
| 20260510013029 | 17 | 232 | 0.0 | 1.6 | 0.00 | 0.00 | 0.00 | 70 | 1009.1 |
| 20260510011530 | 18 | 232 | 0.0 | 0.0 | 0.00 | 0.00 | 0.00 | 66 | 1008.9 |
| 20260510010029 | 18 | 231 | 0.0 | 0.0 | 0.00 | 0.00 | 0.00 | 64 | 1008.8 |
| 20260510004527 | 19 | 232 | 0.0 | 1.6 | 0.00 | 0.00 | 0.00 | 62 | 1008.7 |
| 20260510003031 | 20 | 232 | 0.0 | 1.6 | 0.00 | 0.00 | 0.00 | 59 | 1008.5 |
| 20260510001526 | 20 | 167 | 0.0 | 3.2 | 0.00 | 0.00 | 0.00 | 58 | 1008.4 |
| 20260510000026 | 21 | 243 | 0.0 | 9.7 | 0.00 | 0.00 | 0.00 | 55 | 1008.3 |
| 20260509234534 | 22 | 271 | 1.6 | 6.4 | 0.00 | 0.00 | 0.00 | 53 | 1008.1 |
| 20260509233024 | 23 | 263 | 0.0 | 4.8 | 0.00 | 0.00 | 0.00 | 51 | 1008.0 |
| 20260509231523 | 23 | 239 | 0.0 | 4.8 | 0.00 | 0.00 | 0.00 | 49 | 1008.0 |
| 20260509230024 | 23 | 238 | 0.0 | 4.8 | 0.00 | 0.00 | 0.00 | 47 | 1008.2 |
| 20260509224522 | 23 | 252 | 0.0 | 4.8 | 0.00 | 0.00 | 0.00 | 48 | 1008.0 |
| 20260509223022 | 23 | 269 | 0.0 | 8.0 | 0.00 | 0.00 | 0.00 | 50 | 1008.1 |
| 20260509221522 | 23 | 293 | 3.2 | 9.7 | 0.00 | 0.00 | 0.00 | 49 | 1008.1 |
| 20260509220022 | 23 | 254 | 3.2 | 11.3 | 0.00 | 0.00 | 0.00 | 49 | 1008.1 |
| 20260509214523 | 23 | 186 | 4.8 | 12.9 | 0.00 | 0.00 | 0.00 | 49 | 1008.1 |
| 20260509213020 | 23 | 181 | 0.0 | 9.7 | 0.00 | 0.00 | 0.00 | 49 | 1008.1 |
| 20260509211519 | 24 | 281 | 1.6 | 8.0 | 0.00 | 0.00 | 0.00 | 46 | 1008.0 |
| 20260509210024 | 25 | 186 | 0.0 | 4.8 | 0.00 | 0.00 | 0.00 | 46 | 1007.9 |
| 20260509204517 | 25 | 226 | 4.8 | 17.7 | 0.00 | 0.00 | 0.00 | 45 | 1007.8 |
| 20260509203014 | 24 | 299 | 1.6 | 17.7 | 0.00 | 0.00 | 0.00 | 47 | 1007.8 |
| 20260509201514 | 24 | 328 | 3.2 | 14.5 | 0.00 | 0.00 | 0.00 | 48 | 1007.9 |
| 20260509200012 | 25 | 115 | 4.8 | 17.7 | 0.00 | 0.00 | 0.00 | 47 | 1008.1 |
| 20260509194510 | 24 | 269 | 4.8 | 12.9 | 0.00 | 0.00 | 0.00 | 50 | 1008.3 |
| 20260509193007 | 22 | 254 | 3.2 | 20.9 | 0.00 | 0.00 | 0.00 | 53 | 1008.6 |
| 20260509191506 | 22 | 314 | 3.2 | 8.0 | 0.00 | 0.00 | 0.00 | 55 | 1008.8 |
| 20260509190001 | 23 | 291 | 4.8 | 12.9 | 0.00 | 0.00 | 0.00 | 52 | 1009.0 |
| 20260509184657 | 23 | 179 | 4.8 | 9.7 | 0.00 | 0.00 | 0.00 | 53 | 1009.2 |
| 20260509183110 | 23 | 238 | 1.6 | 12.9 | 0.00 | 0.00 | 0.00 | 54 | 1009.5 |
| 20260509181557 | 23 | 319 | 3.2 | 12.9 | 0.00 | 0.00 | 0.00 | 54 | 1009.7 |